Showing default

COSMOS 2448 (GLONASS), 33468

Orbit data source: Space-Track

COSMOS 2448 (GLONASS), 33468 is a Commonwealth of Independent States-origin payload satellite in MEO that was launched on Thu, 25 Dec 2008 UTC via a PROTON-M/DM-2 launch vehicle from the Tyuratam Missile And Space Complex (TTMTR). Payload-class satellites include a variety of spacecraft equipped with specific instruments for various scientific and technological missions. These include communications satellites like Starlink; space stations such as the ISS; scientific satellites like the Hubble; Earth observation satellites from companies like Planet Labs, Umbra, and HawkEye 360; GPS; miniature CubeSats for education and research; and military/defense satellites.

Loading next visibility...
Identifier
33468, 2008-067C
Orbit
MEO
Country
Flag of CISCIS
Related business
Manufacturer
Resehetnev ISS
Mission
Non-operational Defense Navigation
Bus & Motor
URAGAN, Unknown motor
Mass
1,450 kg wet, ~1,200 kg dry
Launch date (UTC)
2008-12-25 (17 years ago)
Launch vehicle
PROTON-M/DM-2
Launch site
Tyuratam Missile And Space Complex (TTMTR)
Object type
Payload
Rocket body
Debris
Shape & HBR
Cyl + 1 Ant + 2 Pan, 3.9 m
Radar Cross Section
8.467 m², Large (>1 m²)

Expand to show TLE details & history
Last TLE update: 1 week ago

TLE from 1 week ago
0 COSMOS 2448 (GLONASS)
1 33468U 08067C   25253.89896822  .00000027  00000-0  00000-0 0  9993
2 33468  64.6466  78.8938 0002550 185.6554 174.3922  2.13116683130088
Epoch: 2025-09-10T21:34Z
TLE epoch observation values (Epoch: 2025-09-10T21:34:30.854Z)
Latitude
0.00003°
Longitude
125.08872°
Altitude
19,135.733 km
Speed
3.952 km/s
True Right ascension
05h 15m 32s
True Declination
0° 00' 00"
Sunlit
Object was in daylight at epoch
Visualization orbit readout
Latitude
Unknown
Longitude
Unknown
Altitude
Unknown
Speed
Unknown
Apparent Right ascension
Unknown
Apparent Declination
Unknown
Sunlit
N/A
Visualization observer readout
Local Sidereal Time
09:06:10
Azimuth
Unknown
Elevation
Unknown
Doppler factor
Unknown
Orbital elements
Apogee altitude
19,134.847 km
Perigee altitude
19,121.839 km
Semi-major axis
25,506.48 km
Eccentricity
0.00026
Inclination
64.6466°
RAAN
78.8938°
Arg. of periapsis
185.6554°
True anomaly
174.39505°
Mean anomaly
174.3922°
Eccentric anomaly
174.39363°
Mean motion
0.5328 °/min
Orbital period
675.67 mins
BSTAR
0
Loading maneuver chart data...
Computing Atmospheric mass density...
Loading historical data...
Loading historical data...
Loading historical data...
Loading historical data...
Loading historical data...
Loading historical data...
Loading historical data...

Documentation

Showing up to 5 results
|